Location: Carnières
(50.1682°N, 3.3474°E)
Time: 03:53:37
(UTC+00:00)

Cosmos 1814 Rocket - Pass Details

Date: 23 May 2024
Orbit: 742 x 785 km, 74.1° (Epoch: 21 June)

Event Time Altitude Azimuth Distance (km) Brightness Sun altitude
Rises 02:34:06 0° 332° (NNW) 3,221 7.5 -9.8°
Reaches altitude 10° 02:36:31 10° 326° (NW) 2,298 6.7 -9.5°
Maximum altitude 02:41:29 47° 254° (WSW) 1,015 4.3 -9.0°
Drops below altitude 10° 02:46:29 10° 182° (S) 2,308 6.0 -8.5°
Sets 02:48:56 0° 177° (S) 3,237 6.8 -8.2°
